Regional Weather Roundup
Issued by NWS

Home | Current Version | Previous Version | Text Only | Print | Product List | Glossary Off
Versions: 1 2 3 4 5 6 7 8 9 10 11 12 13 14 15 16 17 18 19 20 21 22 23 24 25 26 27 28 29 30 31 32 33 34 35 36 37 38 39 40 41 42 43 44 45 46 47 48 49 50

833
ASUS44 KLIX 011205
RWRLA
LOUISIANA WEATHER ROUNDUP
NATIONAL WEATHER SERVICE NEW ORLEANS LA
700 AM CDT FRI AUG 01 2014

NOTE: "FAIR" INDICATES FEW OR NO CLOUDS BELOW 12,000 FEET WITH NO
      SIGNIFICANT WEATHER AND/OR OBSTRUCTIONS TO VISIBILITY.
      SKY/WX - SKY CONDITION AND SIGNIFICANT WEATHER.
      TMP - AIR TEMPERATURE.    DP   - DEWPOINT TEMPERATURE.
      RH  - RELATIVE HUMIDITY.  PRES - PRESSURE.
      HX  - HEAT INDEX.         WCI  - WIND CHILL INDEX.

*  THESE STATIONS ARE NOT NWS OR FAA STATIONS AND ARE NOT UNDER
   NWS QUALITY CONTROL.

LAZ040-048-061>063-065-066-069-011300-
SOUTHEAST LOUISIANA

CITY           SKY/WX    TMP DP  RH WIND       PRES   REMARKS
N.O. AUDUBON     N/A     79  71  77 MISG        N/A
6HR MIN TEMP:  78; 6HR MAX TEMP:  82;

N.O. INTL ARPT CLOUDY    78  69  73 CALM      29.98S
6HR MIN TEMP:  77; 6HR MAX TEMP:  80;

N.O. LAKEFRONT CLOUDY    80  70  71 E8        30.00R
6HR MIN TEMP:  80; 6HR MAX TEMP:  81;

N.O. DOWNTOWN* FAIR      81  66  61 NE6       30.00S
6HR MIN TEMP:  81; 6HR MAX TEMP:  82;

SLIDELL        CLOUDY    73  68  84 CALM      30.00R
6HR MIN TEMP:  72; 6HR MAX TEMP:  75;

BATON ROUGE    CLOUDY    72  67  84 NE6       29.99R
6HR MIN TEMP:  72; 6HR MAX TEMP:  76;

BOOTHVILLE     CLOUDY    78  68  71 CALM      30.00R
6HR MIN TEMP:  77; 6HR MAX TEMP:  79;

BELLE CHASSE   NOT AVBL
BOGALUSA*      CLOUDY    73  68  86 CALM      30.03R
6HR MIN TEMP:  72; 6HR MAX TEMP:  73;

GALLIANO*      NOT AVBL
NEW ROADS*     CLOUDY    74  68  80 MISG      29.99R
6HR MIN TEMP:  73; 6HR MAX TEMP:  76;

GONZALES*      FAIR      74  74 100 MISG      29.98S
6HR MIN TEMP:  72; 6HR MAX TEMP:  76;

HAMMOND*       CLOUDY    73  66  78 CALM      30.02S
HOUMA*         PTCLDY    77  70  78 CALM      29.99R
PORT FOURCHON* SUNNY     82  66  57 SE5       30.00R

$$

LAZ041-044-053-054-011300-
SOUTHWEST LOUISIANA

CITY           SKY/WX    TMP DP  RH WIND       PRES   REMARKS
LAKE CHARLES   CLOUDY    78  75  90 SW3       29.94S
6HR MIN TEMP:  77; 6HR MAX TEMP:  80; 6HR PCP:  0.01;

LAFAYETTE      CLOUDY    77  74  90 CALM      29.96S
6HR MIN TEMP:  76; 6HR MAX TEMP:  78;

PATTERSON      CLOUDY    77  73  88 CALM      30.02R
6HR MIN TEMP:  75; 6HR MAX TEMP:  77;

SALT POINT       N/A     81  76  84 CALM      29.97R
6HR MIN TEMP:  81; 6HR MAX TEMP:  84;

NEW IBERIA     MOCLDY    78  74  87 SE6       29.97S
6HR MIN TEMP:  77; 6HR MAX TEMP:  79;

CHENAULT AIRPK MOCLDY    79  70  73 SW5       29.96R THUNDER

$$

LAZ027-028-011300-
CENTRAL LOUISIANA

CITY           SKY/WX    TMP DP  RH WIND       PRES   REMARKS
FORT POLK      CLOUDY    74  73  97 CALM      29.95R FOG
6HR MIN TEMP:  74; 6HR MAX TEMP:  76; 6HR PCP:  0.12;

ALEXANDRIA INT CLOUDY    70  69  97 E6        29.94F
6HR MIN TEMP:  70; 6HR MAX TEMP:  76; 6HR PCP:  0.23;

ALEXANDRIA     RAIN      71  67  87 E7        29.96F
6HR MIN TEMP:  70; 6HR MAX TEMP:  74; 6HR PCP:  0.94;


$$

LAZ001-002-011300-
NORTHWEST LOUISIANA

CITY           SKY/WX    TMP DP  RH WIND       PRES   REMARKS
SHREVEPORT     DRIZZLE   68  66  93 E6        29.97R
6HR MIN TEMP:  67; 6HR MAX TEMP:  68; 6HR PCP:  0.07;

BARKSDALE AFB  CLOUDY    67  67  97 E6        29.98R FOG
6HR MIN TEMP:  67; 6HR MAX TEMP:  67; 6HR PCP:  0.07;

DTN SHREVEPORT CLOUDY    67  66  97 E5        29.98R FOG
6HR MIN TEMP:  67; 6HR MAX TEMP:  68; 6HR PCP:  0.09;


$$

LAZ014-016-011300-
NORTHEAST LOUISIANA

CITY           SKY/WX    TMP DP  RH WIND       PRES   REMARKS
MONROE         LGT RAIN  69  67  93 E6        30.01R
6HR MIN TEMP:  69; 6HR MAX TEMP:  72; 6HR PCP:  0.51;

TALLULAH       RAIN      71  67  87 E6        30.00F
6HR MIN TEMP:  71; 6HR MAX TEMP:  74; 6HR PCP:  0.11;


$$




USA.gov is the U.S. government's official web portal to all federal, state and local government web resources and services.